Regional Weather Roundup
Issued by NWS

Home | Current Version | Previous Version | Graphics & Text | Print | Product List | Glossary On
Versions: 1 2 3 4 5 6 7 8 9 10 11 12 13 14 15 16 17 18 19 20 21 22 23 24 25 26 27
000
ASUS45 KSLC 280510
RWRUT

UTAH REGIONAL WEATHER ROUNDUP
NATIONAL WEATHER SERVICE SALT LAKE CITY UT
1100 PM MDT MON MAR 27 2017

UTZ001>011-023>025-280600-

NORTHERN UTAH

CITY           SKY/WX    TMP DP  RH WIND       PRES   REMARKS
BRIGHAM CITY     N/A     45  32  60 NW20      30.01R
HILL AFB       CLOUDY    42  36  77 N10       29.99R
LOGAN          CLOUDY    44  39  82 NW5       30.01R
OGDEN          CLOUDY    42  35  76 NW15      29.98S
SALT LAKE CITY MOCLDY    42  39  89 N9        29.98R
TOOELE VALLEY  CLOUDY    45  36  70 N13       30.01R
WENDOVER       CLEAR     43  25  49 NW22G28   30.05R
HEBER CITY     CLOUDY    37  34  87 SE3       29.93S
WEST JORDAN    CLOUDY    46  44  96 NW17      29.98S

$$

UTZ011>015-024>027-280600-

CENTRAL/NORTHEAST UTAH

CITY           SKY/WX    TMP DP  RH WIND       PRES   REMARKS
PROVO AIRPORT  CLOUDY    42  38  85 N6        29.96S
MOAB/CANYONLAN CLOUDY    45  42  89 W5        29.81S
DELTA          MOCLDY    34  32  93 SW5       29.99R WCI  30
PRICE          CLOUDY    39  33  79 NW8       29.85S WCI  33
RICHFIELD      CLOUDY    37  37 100 NE5       29.99R FOG     WCI  34
ROOSEVELT      CLOUDY    41  37  87 S3        29.88R
VERNAL         CLOUDY    42  38  85 E5        29.84S

$$

UTZ013>016-019>022-027-280600-

SOUTHERN UTAH

CITY           SKY/WX    TMP DP  RH WIND       PRES   REMARKS
BRYCE CANYON   CLOUDY    31  27  85 NW17      29.90R WCI  19
CEDAR CITY     LGT RAIN  33  32  96 N6        29.98R WCI  28
MILFORD        CLOUDY    34  33  96 NW6       29.99S WCI  29
ST GEORGE      CLOUDY    53  35  50 W9        29.92S
HANKSVILLE     MOCLDY    45  41  87 S3        29.86R
BLANDING       CLOUDY    40  38  93 N16       29.91S WCI  31

$$

REGIONAL REPORTS     COLORADO/ARIZONA

CITY           SKY/WX    TMP DP  RH WIND       PRES   REMARKS
CRAIG, CO      CLOUDY    39  32  76 E5        29.85S
GRAND JUNCTION RAIN      43  41  93 NW13      29.86R
RIFLE, CO      CLOUDY    48  35  60 CALM      29.80S
MONTROSE, CO   LGT RAIN  41  38  89 E14       29.87F
CORTEZ, CO     LGT RAIN  42  39  89 SE8       29.85F
COLORADO CITY  MOCLDY    45  34  65 NW18G25   29.93S
PAGE, AZ       MOCLDY    51  33  50 W6        29.82S
GRAND CANYON   MOCLDY    34  30  85 SW3       29.91R
KINGMAN, AZ    PTCLDY    50  25  37 NW5       29.93R
FLAGSTAFF, AZ  PTCLDY    33  29  85 W8        29.91S WCI  26

$$

REGIONAL REPORTS    NEVADA/IDAHO/WYOMING

CITY           SKY/WX    TMP DP  RH WIND       PRES   REMARKS
LAS VEGAS, NV  PTCLDY    61  27  27 NW21G33   29.95R
ELY, NY        MIX PCPN  34  27  75 N14       30.08R WCI  25
ELKO, NV       CLEAR     38  24  57 NE3       30.17R
POCATELLO, ID  CLOUDY    39  34  82 SW16      30.06R WCI  30
BURLEY, ID     LGT RAIN  39  28  64 W18G28    30.06R WCI  30
EVANSTON, WY   LGT SNOW  32  29  88 N15       29.96F FOG     WCI  22
ROCK SPRINGS,  LGT RAIN  36  33  89 N8        29.90S WCI  30
KEMMERER, WY     N/A     32  30  93 NW18G24   29.95S WCI  20

$$




USA.gov is the U.S. government's official web portal to all federal, state and local government web resources and services.